Weather History for KRWL - December, 2012

Change the Weather History Date:

Wednesday, December 12, 2012

  Actual Average Record
Temperature  
Mean Temperature 34 °F 21 °F  
Max Temperature 40 °F 31 °F 54 °F (2014)
Min Temperature 27 °F 12 °F -14 °F (1972)
Degree Days  
Heating Degree Days 31 44  
Month to date heating degree days 434 515  
Since 1 July heating degree days 2104 2621  
Cooling Degree Days 0 0  
Month to date cooling degree days 0 0  
Year to date cooling degree days 419 186  
Moisture  
Dew Point 15 °F    
Average Humidity 52    
Maximum Humidity 63    
Minimum Humidity 40    
Precipitation  
Precipitation 0.00 in 0.02 in 0.59 in (1958)
Month to date precipitation 0.04 0.17  
Year to date precipitation 4.63 8.99  
Sea Level Pressure  
Sea Level Pressure 29.81 in    
Wind  
Wind Speed 21 mph (SW)    
Max Wind Speed 39 mph    
Max Gust Speed 52 mph    
Visibility 10 miles    
Events      
T = Trace of Precipitation, MM = Missing Value Source: NWS Daily Summary

Daily Weather History Graph

Daily Weather History Graph

Search for Another Location

Airport or City:

Trip Planner

Search our weather history database for the weather conditions in past years. The results will help you decide how hot, cold, wet, or windy it might be!

Date:

Astronomy

Dec. 12, 2012 Rise Set
Actual Time 7:27 AM MST 4:38 PM MST
Civil Twilight 6:55 AM MST 5:09 PM MST
Nautical Twilight 6:20 AM MST 5:44 PM MST
Astronomical Twilight 5:46 AM MST 6:18 PM MST
Moon 6:34 AM MST (12/12) 4:18 PM MST (12/12)
Length of Visible Light 10h 13m
Length of Day
9h 10m
Waning Crescent, 0% of the Moon is Illuminated
Dec 12
Waning Crescent
Dec 13
New
Dec 19
First Quarter
Dec 28
Full
Jan 4
Last Quarter

Hourly Weather History & Observations

Time (MST) Temp. Windchill Dew Point Humidity Pressure Visibility Wind Dir Wind Speed Gust Speed Precip Events Conditions
12:53 AM 27.0 °F 11.6 °F 16.0 °F 63% 29.81 in 10.0 mi SSW 26.5 mph 40.3 mph N/A   Clear
1:53 AM 27.0 °F 23.0 °F 16.0 °F 63% 29.80 in 10.0 mi Variable 3.5 mph - N/A   Clear
2:53 AM 30.0 °F 16.6 °F 15.1 °F 54% 29.73 in 10.0 mi SW 23.0 mph 38.0 mph N/A   Clear
3:53 AM 28.9 °F 14.5 °F 15.1 °F 56% 29.76 in 10.0 mi SW 25.3 mph 39.1 mph N/A   Clear
4:53 AM 28.0 °F 15.3 °F 15.1 °F 58% 29.77 in 10.0 mi SW 18.4 mph 28.8 mph N/A   Clear
5:53 AM 27.0 °F 12.8 °F 14.0 °F 58% 29.78 in 10.0 mi SSW 21.9 mph 35.7 mph N/A   Clear
6:53 AM 28.0 °F 13.0 °F 14.0 °F 56% 29.75 in 10.0 mi SW 26.5 mph 35.7 mph N/A   Clear
7:53 AM 28.0 °F 13.6 °F 14.0 °F 56% 29.74 in 10.0 mi SW 24.2 mph 32.2 mph N/A   Clear
8:53 AM 30.9 °F 17.2 °F 15.1 °F 52% 29.74 in 10.0 mi SSW 25.3 mph 42.6 mph N/A   Clear
9:53 AM 34.0 °F 19.5 °F 15.1 °F 46% 29.74 in 10.0 mi SSW 34.5 mph 51.8 mph N/A   Clear
10:53 AM 35.1 °F 21.4 °F 15.1 °F 44% 29.76 in 10.0 mi SW 32.2 mph 43.7 mph N/A   Clear
11:53 AM 37.9 °F 25.7 °F 16.0 °F 41% 29.75 in 10.0 mi SW 29.9 mph 42.6 mph N/A   Clear
12:53 PM 37.9 °F 27.3 °F 16.0 °F 41% 29.75 in 10.0 mi SW 21.9 mph 36.8 mph N/A   Clear
1:53 PM 37.0 °F 25.4 °F 15.1 °F 41% 29.76 in 10.0 mi SW 25.3 mph 35.7 mph N/A   Clear
2:53 PM 37.0 °F 26.2 °F 15.1 °F 41% 29.77 in 10.0 mi SW 21.9 mph 33.4 mph N/A   Scattered Clouds
3:53 PM 35.1 °F 25.2 °F 16.0 °F 46% 29.82 in 10.0 mi WSW 16.1 mph - N/A   Mostly Cloudy
4:53 PM 34.0 °F 24.6 °F 16.0 °F 48% 29.85 in 10.0 mi WSW 13.8 mph 24.2 mph N/A   Overcast
5:53 PM 33.1 °F 22.6 °F 16.0 °F 50% 29.89 in 10.0 mi WSW 16.1 mph - N/A   Overcast
6:53 PM 32.0 °F 20.8 °F 15.1 °F 50% 29.89 in 10.0 mi WSW 17.3 mph - N/A   Partly Cloudy
7:53 PM 32.0 °F 20.1 °F 14.0 °F 48% 29.89 in 10.0 mi SW 19.6 mph - N/A   Scattered Clouds
8:53 PM 30.0 °F 19.1 °F 14.0 °F 51% 29.88 in 10.0 mi West 15.0 mph - N/A   Clear
9:53 PM 28.9 °F 18.2 °F 14.0 °F 54% 29.90 in 10.0 mi WSW 13.8 mph - N/A   Clear
10:53 PM 30.0 °F 18.7 °F 14.0 °F 51% 29.91 in 10.0 mi WSW 16.1 mph - N/A   Clear
11:53 PM 30.0 °F 20.5 °F 14.0 °F 51% 29.91 in 10.0 mi SW 11.5 mph - N/A   Clear